This is the latest recevied weather packets stored in our database for station/object SP1BMW-13. If no packets are shown the sender has not sent any weather packets the latest 10 day(s).
| Time | Temp. | Humidity | Pressure | Rain* | Wind** | Luminosity | Snow |
|---|---|---|---|---|---|---|---|
| 1787726533 | 18.33° C | 69% | 1021.4 hPa | 0 mm | 0.45 m/s, 41° | 187 W/m² | - |
| 1787726473 | 18.33° C | 69% | 1021.3 hPa | 0 mm | 0.89 m/s, 26° | 185 W/m² | - |
| 1787726413 | 18.33° C | 69% | 1021.5 hPa | 0 mm | 0.45 m/s, 23° | 183 W/m² | - |
| 1787726353 | 18.33° C | 70% | 1021.3 hPa | 0 mm | 1.34 m/s, 38° | 180 W/m² | - |
| 1787726293 | 18.33° C | 69% | 1021.4 hPa | 0 mm | 1.79 m/s, 41° | 178 W/m² | - |
| 1787726233 | 18.33° C | 69% | 1021.3 hPa | 0 mm | 0.89 m/s, 39° | 176 W/m² | - |
| 1787726173 | 18.33° C | 70% | 1021.5 hPa | 0 mm | 0.89 m/s, 43° | 174 W/m² | - |
| 1787726113 | 18.33° C | 69% | 1021.4 hPa | 0 mm | 1.34 m/s, 41° | 171 W/m² | - |
| 1787726053 | 18.33° C | 69% | 1021.4 hPa | 0 mm | 2.24 m/s, 40° | 170 W/m² | - |
| 1787725993 | 18.33° C | 70% | 1021.4 hPa | 0 mm | 1.34 m/s, 48° | 167 W/m² | - |
| 1787725933 | 18.33° C | 70% | 1021.3 hPa | 0 mm | 0.45 m/s, 49° | 164 W/m² | - |
| 1787725873 | 18.33° C | 69% | 1021.3 hPa | 0 mm | 0.45 m/s, 47° | 162 W/m² | - |
| 1787725813 | 18.33° C | 70% | 1021.4 hPa | 0 mm | 1.34 m/s, 27° | 160 W/m² | - |
| 1787725754 | 17.78° C | 71% | 1021.3 hPa | 0 mm | 0 m/s | 157 W/m² | - |
| 1787725693 | 17.78° C | 71% | 1021.5 hPa | 0 mm | 0 m/s | 155 W/m² | - |
| 1787725633 | 17.78° C | 70% | 1021.2 hPa | 0 mm | 0.45 m/s, 73° | 153 W/m² | - |
| 1787725573 | 17.78° C | 71% | 1021.3 hPa | 0 mm | 0.45 m/s, 44° | 151 W/m² | - |
| 1787725513 | 17.78° C | 70% | 1021.3 hPa | 0 mm | 0.45 m/s, 31° | 149 W/m² | - |
| 1787725453 | 17.78° C | 71% | 1021.6 hPa | 0 mm | 0.45 m/s, 55° | 147 W/m² | - |
| 1787725394 | 17.78° C | 70% | 1021.6 hPa | 0 mm | 0.45 m/s, 43° | 146 W/m² | - |
| 1787725334 | 18.33° C | 70% | 1021.3 hPa | 0 mm | 0.45 m/s, 48° | 144 W/m² | - |
| 1787725273 | 18.33° C | 69% | 1021.5 hPa | 0 mm | 0.89 m/s, 41° | 142 W/m² | - |
| 1787725213 | 18.33° C | 69% | 1021.2 hPa | 0 mm | 0.89 m/s, 57° | 140 W/m² | - |
| 1787725153 | 18.33° C | 69% | 1021.4 hPa | 0 mm | 0.89 m/s, 49° | 138 W/m² | - |
| 1787725093 | 18.33° C | 69% | 1021.2 hPa | 0 mm | 0 m/s | 137 W/m² | - |
* Rain latest hour (hover to see other rain measurements)
** Current wind speed in m/s (hover to see current wind gust speed)